www.pogodaiklimat.ru

Погода и климат >> Архив погоды >> Россия >> Тюменская область >> Голышманово


ПОГОДА в Голышманово

  • Прогноз погоды в Голышманово
  • Монитор погоды в Голышманово

АРХИВ ПОГОДЫ в Голышманово

Время (UTC), дата Ветер
(напр.,м/с)
 
Видим.   Явления Облачность Т
(С)
Тd
(С)
f
(%)
Тe
(С)
Тes
(С)
Комфортность P
(гПа)
Po
(гПа)
Тmin
(С)
Tmax
(С)
R
(мм)
R24
(мм)
S
(см)
00 18.08 СЗ 1 500 м туман 4/0
[Cc]
+11.9 +11.3 96 +12 +12 1019.2 1004.2
03 18.08 СЗ 2 20 км {туман} 6/0
[Cs]
+17.5 +14.3 81 +18 +21 1019.5 1004.8 +11.6
06 18.08 З 2 20 км 10/0
[Ci fib]
+21.8 +12.4 55 +24 +24 комфорт 1019.8 1005.3
09 18.08 З 2 20 км 10/3 1000 м
[Cb calv Ac trans Cc]
+23.7 +13.3 52 +26 +26 жарко 1019.7 1005.3
12 18.08 С 2 20 км 9/6 1000 м
[Cu Sc Ac trans Cc]
+22.0 +14.1 61 +25 +25 комфорт 1019.7 1005.3
15 18.08 С 2 20 км 10/10 900 м
[Cb calv]
+17.0 +12.2 73 +17 +17 1020.9 1006.2 +24.7
18 18.08 С 2 10 км {ливн. осадки} 10/10 720 м
[Cb calv]
+16.1 +14.1 88 +16 +16 1021.9 1007.1
21 18.08 СЗ 1 10 км 10/10 720 м
[Cb calv]
+15.7 +14.1 90 +16 +16 1024.1 1009.3
00 19.08 С 1 н/о н/о +14.9 +13.4 91 +15 +15 1024.2 1009.3
03 19.08 СЗ 1 20 км {ливн. осадки} 8/6 1000 м
[Sc Ac trans]
+16.0 +13.9 87 +17 +18 1024.7 1009.9 +14.6 0.0
06 19.08 С 3 20 км {ливн. осадки} 6/6 600 м
[Cu med, cong]
+21.4 +12.3 56 +24 +27 комфорт 1025.3 1010.7
09 19.08 С 3 20 км 8/6 600 м
[Cu med, cong Cc]
+22.1 +8.9 43 +23 +26 комфорт 1025.2 1010.7
12 19.08 С 4 20 км 6/3 600 м
[Cu med, cong Cc]
+21.1 +9.3 47 +22 +23 комфорт 1025.3 1010.7
15 19.08 С 1 20 км 6/0
[Cs]
+16.7 +11.3 70 +18 +18 1025.3 1010.5 +22.5
18 19.08 З 1 10 км ясно +11.8 +10.4 91 +12 +12 1027.1 1012.0
21 19.08 З 1 10 км местами туман поземный ясно +10.0 +9.1 94 +9 +9 1025.9 1010.7
00 20.08 З 1 500 м туман ясно +7.6 +6.9 95 +7 +7 1026.0 1010.7
03 20.08 З 2 20 км {туман} 6/0
[Ci fib]
+13.9 +10.8 82 +13 +16 1024.4 1009.5 +6.3
06 20.08 СЗ 4 20 км 4 балла +19.2 +8.8 51 +20 +24 1024.0 1009.3
09 20.08 СЗ 3 20 км 3/0
[Ci fib]
+20.9 +8.5 45 +23 +29 комфорт 1022.6 1008.0
12 20.08 СЗ 2 20 км 7 баллов +20.4 +9.0 48 +22 +23 комфорт 1021.3 1006.7
15 20.08 С 1 20 км 8/0
[Ac lent Ci ing]
+16.0 +11.7 76 +17 +17 1019.2 1004.5 +21.6
18 20.08 С 1 10 км 7 баллов +13.4 +10.8 84 +14 +14 1020.2 1005.3
21 20.08 штиль 0 10 км 6/0
[Cc]
+10.2 +8.8 91 +9 +9 1019.1 1004.0
00 21.08 СВ 1 20 км туман поземный 3/0
[Cs]
+8.1 +7.4 95 +7 +7 1018.2 1003.0
03 21.08 СВ 2 20 км 8/8 600 м
[Cu Sc]
+11.9 +10.1 89 +11 +11 1018.3 1003.4 +7.6
06 21.08 С 3 20 км 6/4 1000 м
[Cu med, cong Ci fib]
+15.7 +9.8 68 +15 +19 1018.8 1004.0
09 21.08 СВ 3 20 км 6/6 1000 м
[Cu med, cong]
+18.0 +8.0 52 +18 +21 1018.6 1004.0
12 21.08 С 5 20 км 8/5 600 м
[Cb calv Ac trans Ci fib]
+18.3 +8.6 53 +18 +19 1018.6 1004.0
15 21.08 С 1 20 км 8/8 600 м
[Cb calv]
+15.0 +10.1 72 +16 +16 1017.7 1002.9 +19.0
18 21.08 С 2 10 км 10/0
[As op]
+13.7 +11.0 84 +13 +13 1018.9 1004.0
21 21.08 СЗ 3 10 км 10/0
[As op]
+13.9 +11.2 84 +13 +13 1017.5 1002.7
00 22.08 С 2 20 км 10/10 720 м
[Sc]
+13.2 +11.2 88 +12 +12 1016.6 1001.8
03 22.08 С 4 4000 м дымка 10/6 600 м
[Cb calv As trans]
+13.9 +12.1 89 +12 +13 1016.8 1002.0 +13.1
06 22.08 С 4 20 км 7 баллов +16.4 +12.4 77 +16 +18 1018.7 1004.0
09 22.08 С 3 20 км 8/3 600 м
[Cu hum Ci fib]
+20.5 +11.9 58 +23 +25 комфорт 1018.5 1004.0
12 22.08 С 2 20 км 7 баллов +20.8 +14.2 66 +24 +25 комфорт 1018.5 1004.0
15 22.08 СЗ 1 2000 м дымка 3/0
[Cs]
+16.9 +13.7 81 +18 +18 1018.2 1003.6 +22.0
18 22.08 З 1 10 км ясно +13.3 +12.4 94 +13 +13 1020.2 1005.3
21 22.08 З 1 10 км ясно +12.7 +11.8 94 +13 +13 1020.2 1005.3
00 23.08 штиль 0 2000 м туман поземный ясно +11.2 +10.4 95 +10 +10 1020.3 1005.3
03 23.08 З 2 4000 м дымка {туман} 8/0
[Cc]
+15.6 +13.6 88 +15 +18 1019.4 1004.7 +10.8
06 23.08 З 4 20 км 9 баллов +20.3 +13.3 64 +23 +23 комфорт 1019.8 1005.3
09 23.08 ЮЗ 4 20 км 9 баллов +22.1 +12.3 54 +25 +25 комфорт 1018.4 1004.0
12 23.08 ЮЗ 3 20 км 2 балла +23.3 +12.0 49 +26 +28 жарко 1017.0 1002.7
15 23.08 Ю 2 20 км 8/0
[Ac As Cc]
+19.7 +12.7 64 +22 +22 комфорт 1015.0 1000.5 +23.8
18 23.08 ЮЗ 3 10 км 7 баллов +18.0 +11.1 64 +18 +18 1014.6 1000.0
21 23.08 З 2 10 км 7 баллов +17.3 +12.6 74 +18 +18 1014.6 1000.0
00 24.08 З 3 4000 м дымка 6/4 300 м
[St As op]
+16.0 +14.9 93 +15 +15 1013.8 999.2
03 24.08 З 4 20 км ясно +15.4 +10.8 74 +14 +16 1015.1 1000.4 +14.7
06 24.08 З 5-10
{10}
20 км 4/4 1000 м
[Cu hum]
+18.5 +9.8 57 +19 +22 1015.2 1000.6
09 24.08 З 4 20 км 7 баллов +19.8 +9.4 51 +21 +23 комфорт 1015.8 1001.3
12 24.08 З 4
{10}
20 км 8/6 600 м
[Cb calv Ci fib]
+19.5 +9.1 51 +20 +21 1015.9 1001.4
15 24.08 З 2 20 км 4/0
[Ac trans Ci fib]
+16.0 +9.0 63 +16 +16 1017.4 1002.7 +20.4
18 24.08 З 2 10 км ясно +12.7 +9.0 78 +12 +12 1018.9 1004.0
21 24.08 З 1 10 км ясно +10.0 +8.4 90 +9 +9 1019.1 1004.0

 

Местоположение метеостанции Голышманово (Тюменская область, Россия): широта 56.42 долгота 68.42 высота над уровнем моря 124 м.

В архиве по умолчанию представлена погода в Голышманово за последнюю неделю. Архивные данные за месяц целиком и за предыдущие месяцы, начиная с января 2011 года, Вы можете получить, выбрав интересующий диапазон дат из раскрывающегося списка и нажав кнопку "Ввод!".


*Определитесь, кто Вы:
робот инопланетянин человек

Внимание! Время в таблицах - всемирное. Для получения местного времени необходимо прибавить поправку, которая равна 5 ч.

Смотрите также архив погоды в соседних городах и на ближайших метеорологических станциях:

Погода в Аромашево (Тюменская область, Россия) (52 км)
Погода в Бердюжьем (Тюменская область, Россия) (67 км)
Погода в Ишиме (Тюменская область, Россия) (72 км)
Погода в Ильинке (Омская область, Россия) (122 км)
Погода в Абатском (Тюменская область, Россия) (125 км)
Погода в Ялуторовске (Тюменская область, Россия) (130 км)
Погода в Ярково (Тюменская область, Россия) (138 км)
Погода в Викулово (Тюменская область, Россия) (142 км)
Погода в Макушино (Курганская область, Россия) (148 км)
Погода в Сладково (Тюменская область, Россия) (155 км)

Пояснения к столбцам:

Ветер - указаны скорость ветра в м/с - средняя за 10 мин, порывы в срок и между сроками (в фигурных скобках) и направление, откуда дует ветер: С - северный, СВ - северо-восточный, В - восточный, ЮВ - юго-восточный, Ю - южный, ЮЗ - юго-западный, З - западный, СЗ - северо-западный.
Видимость - горизонтальная дальность видимости в метрах или километрах. При видимости от 1 до 10 км при отсутствии осадков обычно наблюдается дымка, при ухудшении видимости до 1 км и менее - туман. В сухую погоду видимость может ухудшаться дымом, пылью или мглою.
Явления - указаны атмосферные явления, наблюдавшиеся в срок или в последний час перед сроком; фигурными скобками обозначены явления, наблюдавшиеся между сроками (за 1-3 часа до срока); квадратными скобками обозначены град или гололедные отложения с указанием их диаметра в мм.
Облачность - указаны через наклонную черту общая и нижняя облачность в баллах и высота нижней границы облаков в метрах; квадратными скобками обозначены формы облаков: Ci - перистые, Cs - перисто-слоистые, Cc - перисто-кучевые, Ac - высококучевые, As - высокослоистые, Sc - слоисто-кучевые, Ns - слоисто-дождевые, Cu - кучевые, Cb - кучево-дождевые. Подробнее классификацию облаков см. в Атласе облаков (PDF).
T - Температура воздуха - температура, измеренная на высоте 2 м над землей.
Td - Температура точки росы - температура, при понижении до которой содержащийся в воздухе водяной пар достигнет насыщения.
f - Относительная влажность воздуха - влажноcть воздуха, измеренная на высоте 2 м над землей.
Te - Эффективная температура - температура, которую ощущает одетый по сезону человек в тени. Характеристика душности погоды. При расчете учитывается влияние влажности воздуха и скорости ветра на теплоощущения человека.
Tes - Эффективная температура на солнце - температура, которую ощущает человек, с поправкой на солнечный нагрев. Характеристика знойности погоды. Зависит от высоты солнца над горизонтом, облачности и скорости ветра. Ночью, в пасмурную погоду, а также при ветре 12 м/с и более поправка равна нулю.
P - Атмосферное давление - приведенное к уровню моря атмосферное давление.
Po - Атмосферное давление - измеренное на уровне метеостанции атмосферное давление.
Tmin - Минимальная температура - минимум температуры воздуха на высоте 2 м над землей.
Tmax - Максимальная температура - максимум температуры воздуха на высоте 2 м над землей.
R - Количество осадков - Количество выпавших осадков за период времени, мм. При наведении курсора мыши на число - период времени, за который выпало указанное количество осадков.
R24 - Количество осадков - Количество выпавших осадков за 24 часа, мм.
S - Снежный покров - Высота снежного покрова, см. При наведении курсора мыши на число - состояние снежного покрова и степень покрытия местности в баллах.